C/2011 L6 ( Boattini )

Japanese version
Home page
Updated on September 1, 2011

---------------------------------------------------------------------

* Profile

Discovery Date June 8, 2011
Magnitude 20.5 mag
Discoverer A. Boattini (Mt. Lemmon)

* Pictures

* Orbital Elements

T 2011 Jan. 22.87245 TT                                 MPC
q   6.7861968            (2000.0)            P               Q
                   Peri.  331.62644     -0.45896948     -0.88445222
                   Node   214.49857     -0.78445212     +0.35892066
e   1.0            Incl.  171.44961     -0.41711137     +0.29819494
From 46 observations 2011 May 28-July 5.

* Magnitudes Graph

        m1 = 8.0 + 5 log d + 10.0 log r

---------------------------------------------------------------------

The orbital elements are published on M.P.E.C. 2011-N34.
The magnitudes graphs are made with Comet for Windows.

---------------------------------------------------------------------

Copyright(C) Seiichi Yoshida (comet@aerith.net). All rights reserved.